Weather History for Yakutat, AK

Change the Weather History Date:

Friday, March 29, 2013

  Actual Average Record
Temperature  
Mean Temperature 32 °F 34 °F  
Max Temperature 35 °F 41 °F 59 °F (1994)
Min Temperature 28 °F 26 °F 5 °F (1967)
Degree Days  
Heating Degree Days 33 31  
Month to date heating degree days 1054 960  
Since 1 July heating degree days 7299 7089  
Cooling Degree Days 0    
Month to date cooling degree days 0  
Year to date cooling degree days 0  
Moisture  
Dew Point 30 °F    
Average Humidity 0    
Maximum Humidity 0    
Minimum Humidity 0    
Precipitation  
Precipitation 0.13 in 0.31 in 2.67 in (1984)
Month to date precipitation 4.66 10.40  
Year to date precipitation 31.31 34.92  
Snow  
Snow 0.10 in 0.80 in 11.60 in (1977)
Month to date snowfall 27.1 25.7  
Since 1 July snowfall 143.0 127.9  
Snow Depth 26.00 in    
Sea Level Pressure  
Sea Level Pressure 30.21 in    
Wind  
Wind Speed 5 mph (ENE)    
Max Wind Speed 9 mph    
Max Gust Speed 13 mph    
Visibility 3 miles    
Events Fog , Snow    
T = Trace of Precipitation, MM = Missing Value Source: NWS Daily Summary

Daily Weather History Graph

Daily Weather History Graph

Search for Another Location

Airport:

Trip Planner

Search our weather history database for the weather conditions in past years. The results will help you decide how hot, cold, wet, or windy it might be!

Date:

Astronomy

Mar. 29, 2013 Rise Set
Actual Time 6:52 AM AKDT 7:55 PM AKDT
Civil Twilight 6:10 AM AKDT 8:37 PM AKDT
Nautical Twilight 5:18 AM AKDT 9:29 PM AKDT
Astronomical Twilight 4:20 AM AKDT 10:28 PM AKDT
Moon No Moon Rise 7:22 AM AKDT (3/29)
Length of Visible Light 14h 27m
Length of Day
13h 03m
Waning Gibbous, 92% of the Moon is Illuminated
Mar 29
Waning Gibbous
Apr 2
Last Quarter
Apr 10
New
Apr 18
First Quarter
Apr 25
Full

Hourly Weather History & Observations

Time (AKDT) Temp. Windchill Dew Point Humidity Pressure Visibility Wind Dir Wind Speed Gust Speed Precip Events Conditions
12:07 AM 28.4 °F 23.3 °F 26.6 °F 93% 30.24 in 1.8 mi ENE 4.6 mph - 0.01 in Snow Light Snow
12:17 AM 28.4 °F 23.3 °F 26.6 °F 93% 30.24 in 2.0 mi East 4.6 mph - 0.01 in Snow Light Snow
12:46 AM 28.4 °F 23.3 °F 26.6 °F 93% 30.23 in 2.5 mi ENE 4.6 mph - 0.01 in Snow Light Snow
12:53 AM 28.9 °F 25.2 °F 27.0 °F 92% 30.24 in 3.0 mi East 3.5 mph - 0.01 in Snow Light Snow
1:19 AM 28.4 °F - 26.6 °F 93% 30.24 in 3.0 mi Calm Calm - 0.01 in Snow Light Snow
1:29 AM 28.4 °F 24.6 °F 26.6 °F 93% 30.24 in 3.0 mi East 3.5 mph - 0.01 in Snow Light Snow
1:38 AM 28.4 °F 23.3 °F 26.6 °F 93% 30.23 in 2.5 mi East 4.6 mph - 0.01 in Snow Light Snow
1:50 AM 28.4 °F 24.6 °F 26.6 °F 93% 30.23 in 4.0 mi East 3.5 mph - 0.01 in Snow Light Snow
1:53 AM 28.0 °F 22.8 °F 27.0 °F 96% 30.24 in 4.0 mi East 4.6 mph - 0.01 in Snow Light Snow
2:06 AM 28.4 °F 24.6 °F 26.6 °F 93% 30.23 in 6.0 mi ENE 3.5 mph - 0.00 in   Overcast
2:53 AM 28.9 °F 25.2 °F 27.0 °F 92% 30.25 in 3.0 mi ENE 3.5 mph - 0.00 in Snow Light Snow
3:03 AM 28.4 °F 24.6 °F 26.6 °F 93% 30.24 in 2.0 mi ENE 3.5 mph - 0.01 in Snow Light Snow
3:12 AM 28.4 °F 23.3 °F 26.6 °F 93% 30.25 in 4.0 mi ENE 4.6 mph - 0.01 in Snow Light Snow
3:53 AM 28.9 °F 22.8 °F 27.0 °F 92% 30.24 in 7.0 mi ENE 5.8 mph - 0.01 in Snow Light Snow
4:53 AM 28.9 °F 23.9 °F 27.0 °F 92% 30.23 in 10.0 mi ENE 4.6 mph - 0.00 in   Overcast
5:36 AM 28.4 °F 23.3 °F 26.6 °F 93% 30.22 in 10.0 mi East 4.6 mph - N/A   Overcast
5:53 AM 28.9 °F 23.9 °F 26.1 °F 89% 30.22 in 10.0 mi East 4.6 mph - N/A   Overcast
6:51 AM 30.2 °F - 26.6 °F 86% 30.22 in 10.0 mi Calm Calm - N/A   Overcast
6:53 AM 30.0 °F 26.5 °F 26.1 °F 85% 30.22 in 10.0 mi East 3.5 mph - N/A   Overcast
7:13 AM 30.2 °F 26.7 °F 26.6 °F 86% 30.23 in 10.0 mi ENE 3.5 mph - N/A   Overcast
7:53 AM 30.0 °F 24.1 °F 27.0 °F 88% 30.23 in 8.0 mi ENE 5.8 mph - 0.00 in   Overcast
8:53 AM 30.9 °F 26.2 °F 28.0 °F 89% 30.23 in 10.0 mi ENE 4.6 mph - N/A   Overcast
9:53 AM 33.1 °F 28.7 °F 28.9 °F 85% 30.22 in 10.0 mi East 4.6 mph - N/A   Overcast
10:53 AM 34.0 °F 28.0 °F 30.0 °F 85% 30.22 in 5.0 mi East 6.9 mph - 0.00 in Snow Light Snow
11:53 AM 35.1 °F 29.3 °F 30.0 °F 82% 30.23 in 8.0 mi East 6.9 mph - 0.00 in   Overcast
12:46 PM 33.8 °F 27.0 °F 30.2 °F 87% 30.23 in 3.0 mi East 8.1 mph - 0.00 in Snow Light Snow
12:51 PM 33.8 °F 27.0 °F 30.2 °F 87% 30.23 in 1.8 mi East 8.1 mph - 0.00 in Snow Light Snow
12:53 PM 34.0 °F 27.2 °F 30.9 °F 89% 30.23 in 1.5 mi East 8.1 mph - 0.00 in Snow Light Snow
1:01 PM 33.8 °F 27.7 °F 30.2 °F 87% 30.23 in 1.2 mi ENE 6.9 mph - 0.00 in Snow Light Snow
1:34 PM 33.8 °F 27.7 °F 32.0 °F 93% 30.22 in 1.5 mi ENE 6.9 mph - 0.01 in Snow Light Snow
1:53 PM 33.1 °F 26.1 °F 32.0 °F 96% 30.22 in 2.5 mi ENE 8.1 mph - 0.02 in Snow Light Snow
2:06 PM 33.8 °F 26.4 °F 32.0 °F 93% 30.22 in 1.2 mi ENE 9.2 mph - 0.00 in Snow Light Snow
2:24 PM 33.8 °F 26.4 °F 32.0 °F 93% 30.22 in 0.8 mi ENE 9.2 mph - 0.02 in Snow Light Snow
2:32 PM 33.8 °F 27.7 °F 32.0 °F 93% 30.22 in 1.0 mi East 6.9 mph - 0.03 in Snow Light Snow
2:53 PM 33.1 °F 26.1 °F 32.0 °F 96% 30.22 in 1.5 mi East 8.1 mph - 0.04 in Snow Light Snow
3:00 PM 33.8 °F 27.0 °F 32.0 °F 93% 30.21 in 1.2 mi East 8.1 mph - 0.01 in Snow Light Snow
3:04 PM 33.8 °F 26.4 °F 32.0 °F 93% 30.21 in 1.2 mi ENE 9.2 mph - 0.01 in Snow Light Snow
3:20 PM 33.8 °F 29.6 °F 32.0 °F 93% 30.21 in 1.2 mi ESE 4.6 mph - 0.02 in Snow Light Snow
3:35 PM 33.8 °F 28.6 °F 32.0 °F 93% 30.21 in 1.0 mi East 5.8 mph - 0.03 in Snow Light Snow
3:53 PM 33.1 °F 26.9 °F 32.0 °F 96% 30.21 in 0.8 mi East 6.9 mph - 0.04 in Snow Light Snow
4:53 PM 33.1 °F 26.9 °F 32.0 °F 96% 30.19 in 1.0 mi East 6.9 mph - 0.06 in Snow Light Snow
5:03 PM 33.8 °F 26.4 °F 32.0 °F 93% 30.19 in 0.8 mi East 9.2 mph - 0.01 in Snow Light Snow
5:22 PM 33.8 °F 26.4 °F 32.0 °F 93% 30.19 in 0.8 mi East 9.2 mph - 0.03 in Snow Light Snow
5:32 PM 33.8 °F 26.4 °F 32.0 °F 93% 30.18 in 0.5 mi East 9.2 mph - 0.04 in Fog , Snow Snow
5:53 PM 33.1 °F 25.5 °F 32.0 °F 96% 30.18 in 0.8 mi East 9.2 mph - 0.06 in Snow Light Snow
6:53 PM 33.1 °F 25.5 °F 32.0 °F 96% 30.16 in 0.5 mi East 9.2 mph - 0.05 in Fog , Snow Snow
7:53 PM 33.1 °F 26.9 °F 32.0 °F 96% 30.15 in 0.8 mi East 6.9 mph - 0.04 in Snow Light Snow
8:04 PM 33.8 °F 27.0 °F 32.0 °F 93% 30.15 in 1.2 mi East 8.1 mph - 0.01 in Snow Light Snow
8:46 PM 33.8 °F 27.0 °F 32.0 °F 93% 30.14 in 0.8 mi East 8.1 mph - 0.06 in Snow Light Snow
8:53 PM 33.1 °F 26.1 °F 32.0 °F 96% 30.14 in 1.0 mi East 8.1 mph - 0.07 in Snow Light Snow
9:21 PM 33.8 °F 27.0 °F 32.0 °F 93% 30.14 in 0.8 mi East 8.1 mph - 0.03 in Snow Light Snow
9:38 PM 32.0 °F 24.8 °F 32.0 °F 100% 30.14 in 1.0 mi East 8.1 mph - 0.04 in Snow Light Snow
9:53 PM 33.1 °F 25.5 °F 32.0 °F 96% 30.14 in 1.0 mi East 9.2 mph - 0.07 in Snow Light Snow
10:34 PM 32.0 °F 24.8 °F 32.0 °F 100% 30.13 in 0.8 mi East 8.1 mph - 0.05 in Snow Light Snow
10:53 PM 32.0 °F 24.2 °F 32.0 °F 100% 30.13 in 0.8 mi East 9.2 mph - 0.07 in Snow Light Snow
11:53 PM 32.0 °F 24.8 °F 32.0 °F 100% 30.11 in 0.8 mi East 8.1 mph - 0.11 in Snow Light Snow